Location: Ailly
(50.0793°N, 1.9944°E)
Time: 20:36:54
(UTC+00:00)

BREEZE-M DEB (TANK) - Pass Details

Date: 15 January 2026
Orbit: 312 x 11317 km, 49.7° (Epoch: 18 February)

Event Time Altitude Azimuth Distance (km) Brightness Sun altitude
Exits shadow 06:35:33 17° 267° (W) 898 3.9 -10.8°
Maximum altitude 06:37:02 45° 198° (SSW) 440 2.9 -10.6°
Drops below altitude 10° 06:39:32 10° 122° (ESE) 1,400 6.9 -10.2°
Sets 06:42:03 0° 116° (ESE) 2,678 9.1 -9.8°
